Weather in Shendzhiy

Russia / Republic of Adygea     44°52′57″N   39°03′54″E
temp.,
°C
wind,
m/s
gust,
m/s
humid.,
%
clouds,
%
prec.,
mm/h
press.,
hPa
HPBL,
m
18 january, tue
tue1800:00+4ssw10197799 0.6 10111484
03:00+4s102084100 0.8 10081462
06:00+3ssw122387100 1.0 10071534
09:00+3ssw112291100 7.0 10061520
12:00+4ssw91891100 8.0 10051380
15:00+2wsw3698100 16.1 1008394
18:00+2w4878100 3.7 1011780
21:00+1wsw368299 3.7 1014483
19 january, wed
wed1900:000wnw4879100 0.0 1015664
03:00−1w4779100 0.1 1017674
06:00−1wsw358399 0.0 1018465
09:00−1sw35815 0.0 1019450
12:00+1w34615 0.0 10201011
15:00+1w355365 0.0 10191264
18:000wnw3469100 0.0 1020513
21:00−1nw2383100 0.2 1021484
20 january, thu
thu2000:00
03:00−2sse128229 0.1 1021237
06:00−2s118281 0.0 1021233
09:00
12:00−1se22737 0.0 1022459
15:000sse12679 0.0 1021695
18:00−2ese23815 0.0 1022111
21:00−3se35856 0.0 1023156
21 january, fri
fri2100:00−2se36745 0.0 1022142
03:00−1sse4107694 0.0 1021316
06:00+2s7157599 0.0 1020889
09:00+2s7167599 0.0 10201085
12:00+4s8167332 0.0 10191082
15:00+5ssw81564100 0.0 10181096
18:00+5s61558100 0.0 1017776
21:00+3se31070100 0.0 1016472
22 january, sat
sat2200:00+4sse31066100 0.0 1015363
03:00+2e2375100 0.0 101473
06:00+4s41375100 0.0 1014661
09:00+5ssw71588100 0.9 10141062
12:00+4wsw2695100 0.5 1015251
15:00+1nnw3699100 4.7 1016210
18:00+1n23100100 4.6 101794
21:00+1nnw35100100 6.9 1018228